1494075601.2,31856,17.13,73620.5,7.17,2.09,2.43,0,*7B
1494075602.45,31857,17.13,73624.0,7.15,1.85,2.01,0,*79
1494075603.68,31858,17.13,73624.0,7.15,2.61,2.85,0,*73
1494075604.92,31859,17.13,73624.8,7.15,2.35,2.51,0,*7A
1494075606.12,31860,17.13,73628.5,7.13,3.55,3.71,0,*72
1494075607.32,31861,17.13,73632.3,7.13,4.37,4.59,0,*7D
1494075608.53,31862,17.13,73632.0,7.17,4.57,4.71,0,*76
1494075609.73,31863,17.13,73634.3,7.17,4.63,4.89,0,*77
1494075610.94,31864,17.13,73638.8,7.17,4.31,4.45,0,*77
1494075612.15,31865,17.13,73638.0,7.21,3.15,3.25,0,*73
1494075613.38,31866,17.13,73636.0,7.19,3.63,3.97,0,*73
1494075614.58,31867,17.13,73636.5,7.21,4.57,5.05,0,*74
1494075615.76,31868,17.13,73632.8,7.21,3.85,4.23,0,*76
1494075616.97,31869,17.13,73638.5,7.27,3.29,3.81,0,*78
1494075618.2,31870,17.13,73632.3,7.27,3.67,4.15,0,*70
1494075619.41,31871,17.13,73632.5,7.29,4.33,4.79,0,*73
1494075620.65,31872,17.13,73632.5,7.31,5.01,5.33,0,*76
1494075621.88,31873,17.13,73634.3,7.35,4.49,4.71,0,*79
1494075623.05,31874,17.13,73638.0,7.33,4.57,4.89,0,*70
1494075624.27,31875,17.13,73634.0,7.37,4.63,5.07,0,*75
1494075625.5,31876,17.13,73632.8,7.39,4.15,4.75,0,*7D
1494075626.71,31877,17.13,73630.8,7.39,3.25,3.81,0,*74
1494075627.94,31878,17.13,73632.0,7.37,3.19,3.79,0,*7D
1494075629.17,31879,17.13,73632.5,7.39,2.99,3.49,0,*78
1494075630.4,31880,17.13,73632.0,7.39,2.65,3.23,0,*71
1494075631.66,31881,17.13,73634.8,7.39,3.15,3.75,0,*75
1494075632.87,31882,17.13,73632.5,7.41,3.41,4.07,0,*7A
1494075634.09,31883,17.13,73628.8,7.43,4.31,4.81,0,*77
1494075635.35,31884,17.13,73630.3,7.43,4.67,5.01,0,*7A
1494075636.59,31885,17.13,73630.3,7.49,4.75,5.19,0,*7B
1494075637.78,31886,17.13,73628.0,7.51,5.37,5.77,0,*7E
1494075639.02,31887,17.13,73630.5,7.53,6.11,6.43,0,*7E
1494075640.27,31888,17.13,73626.8,7.57,6.53,6.87,0,*7B
1494075641.5,31889,17.13,73626.0,7.59,5.93,6.17,0,*72
1494075642.73,31890,17.13,73626.8,7.61,5.55,5.71,0,*78
1494075643.93,31891,17.13,73628.3,7.63,5.33,5.55,0,*7D
1494075645.16,31892,17.13,73630.5,7.65,4.53,4.79,0,*70
1494075646.4,31893,17.13,73624.8,7.65,4.93,5.11,0,*72
1494075647.59,31894,17.13,73626.8,7.67,3.97,4.15,0,*71
1494075648.79,31895,17.13,73624.3,7.67,3.33,3.63,0,*78
1494075649.96,31896,17.13,73624.3,7.67,4.23,4.45,0,*7E
1494075651.14,31897,17.13,73626.3,7.71,4.27,4.45,0,*7C
1494075652.32,31898,17.13,73622.5,7.71,4.27,4.57,0,*70
1494075653.53,31899,17.13,73624.0,7.67,3.41,3.63,0,*71
1494075654.76,31900,17.13,73630.0,7.67,3.15,3.45,0,*75
1494075655.96,31901,17.13,73632.5,7.67,3.63,3.97,0,*7A
1494075657.16,31902,17.13,73632.8,7.67,3.75,3.85,0,*7D
1494075658.39,31903,17.13,73634.3,7.67,3.75,3.97,0,*7F
1494075659.57,31904,17.13,73626.0,7.67,4.33,4.45,0,*75
1494075660.74,31905,17.13,73630.0,7.71,4.07,4.27,0,*70
1494075661.92,31906,17.13,73624.3,7.71,4.89,5.11,0,*71
1494075663.13,31907,17.13,73628.0,7.75,4.59,4.57,0,*7A
1494075664.38,31908,17.13,73626.3,7.73,3.71,4.01,0,*7D
1494075665.61,31909,17.13,73630.0,7.73,3.79,3.89,0,*73
1494075666.83,31910,17.13,73634.8,7.73,4.01,4.15,0,*71
1494075668.05,31911,17.13,73634.5,7.73,3.55,3.49,0,*78
1494075669.25,31912,17.13,73626.8,7.73,4.27,4.27,0,*76
1494075670.42,31913,17.13,73630.3,7.75,4.41,4.41,0,*71
1494075671.6,31914,17.13,73622.5,7.75,4.41,4.57,0,*71
1494075672.8,31915,17.13,73624.0,7.75,4.05,4.19,0,*7A
1494075674.0,31916,17.13,73622.3,7.79,3.63,3.75,0,*7F
1494075675.2,31917,17.13,73624.5,7.77,3.59,3.63,0,*7E
1494075676.44,31918,17.13,73626.5,7.77,4.31,4.33,0,*7A
1494075677.62,31919,17.13,73624.0,7.79,4.27,4.45,0,*73
1494075678.8,31920,17.13,73624.5,7.79,4.15,4.33,0,*79
1494075679.98,31921,17.13,73624.3,7.79,4.11,4.07,0,*7B
1494075681.22,31922,17.13,73624.5,7.81,3.11,3.33,0,*78
1494075682.45,31923,17.13,73624.5,7.79,3.75,3.97,0,*72
1494075683.62,31924,17.13,73626.8,7.79,4.27,4.49,0,*71
1494075684.85,31925,17.13,73628.3,7.79,4.97,5.27,0,*72
1494075686.07,31926,17.13,73628.5,7.83,5.29,5.51,0,*71
1494075687.26,31927,17.13,73626.3,7.85,5.11,5.15,0,*7D
1494075688.46,31928,17.13,73624.5,7.87,4.23,4.23,0,*74
1494075689.67,31929,17.13,73626.3,7.85,4.57,4.67,0,*74
1494075690.93,31930,17.13,73620.0,7.87,3.37,3.49,0,*74
1494075692.16,31931,17.13,73616.0,7.85,3.49,3.53,0,*75
1494075693.34,31932,17.13,73618.3,7.85,3.59,3.81,0,*78
1494075694.53,31933,17.13,73618.5,7.85,3.93,4.15,0,*75
1494075695.74,31934,17.13,73618.5,7.87,4.33,4.53,0,*7F
1494075697.0,31935,17.13,73618.0,7.87,5.01,5.27,0,*7C
1494075698.24,31936,17.13,73620.0,7.87,4.57,4.67,0,*78
1494075699.5,31937,17.13,73626.0,7.87,3.75,3.97,0,*76
1494075700.68,31938,17.13,73626.5,7.85,3.59,3.63,0,*7E
1494075701.91,31939,17.13,73628.8,7.85,3.53,3.75,0,*72
1494075703.09,31940,17.13,73626.8,7.85,2.91,2.99,0,*70
1494075704.32,31941,17.13,73620.5,7.85,3.53,3.75,0,*7D
1494075705.51,31942,17.13,73624.3,7.85,4.23,4.33,0,*7B
1494075706.74,31943,17.13,73624.5,7.87,4.85,5.05,0,*70
1494075707.93,31944,17.13,73630.3,7.89,4.23,4.37,0,*75
1494075709.17,31945,17.13,73626.0,7.89,3.67,3.75,0,*72
1494075710.39,31946,17.13,73620.3,7.89,2.73,2.69,0,*79
1494075711.62,31947,17.13,73624.3,7.85,2.21,2.21,0,*7F
1494075712.84,31948,17.13,73628.0,7.85,1.93,1.71,0,*7C
1494075714.07,31949,17.13,73628.3,7.83,2.61,2.73,0,*74
1494075715.31,31950,17.13,73626.0,7.81,3.07,3.19,0,*72
1494075716.51,31951,17.13,73628.3,7.81,3.55,3.71,0,*7A
1494075717.72,31952,17.13,73628.8,7.81,3.45,3.59,0,*72
1494075718.95,31953,17.13,73626.5,7.83,3.79,3.89,0,*73
1494075720.18,31954,17.13,73630.0,7.83,3.89,4.01,0,*7C
1494075721.44,31955,17.13,73630.8,7.83,4.71,4.97,0,*72
1494075722.65,31956,17.13,73630.5,7.85,4.53,4.67,0,*78
1494075723.92,31957,17.13,73628.3,7.87,4.75,5.01,0,*7E
1494075725.13,31958,17.13,73630.3,7.87,4.33,4.53,0,*75
1494075726.32,31959,17.13,73630.3,7.89,4.89,5.07,0,*7B
1494075727.5,31960,17.13,73634.3,7.93,4.11,4.27,0,*78
1494075728.69,31961,17.13,73634.0,7.93,4.23,4.41,0,*78
1494075729.87,31962,17.13,73634.0,7.93,4.15,4.27,0,*7E
1494075731.1,31963,17.13,73638.0,7.95,4.27,4.59,0,*71
1494075732.34,31964,17.13,73634.5,7.95,4.97,5.19,0,*78
1494075733.54,31965,17.13,73626.5,7.97,5.27,5.59,0,*75
1494075734.78,31966,17.13,73626.8,7.99,4.97,5.23,0,*7F
1494075735.95,31967,17.13,73624.0,8.01,4.49,4.81,0,*7A
1494075737.17,31968,17.13,73622.3,8.01,5.01,5.19,0,*78
1494075738.35,31969,17.13,73616.3,8.05,4.15,4.53,0,*76
1494075739.58,31970,17.13,73616.5,8.05,4.59,5.05,0,*74
1494075740.78,31971,17.13,73610.3,8.07,4.89,5.33,0,*7F
1494075742.03,31972,17.13,73610.8,8.07,4.67,5.01,0,*7D
1494075743.24,31973,17.13,73612.5,8.09,4.67,4.89,0,*73
1494075744.41,31974,17.13,73612.0,8.09,4.57,4.81,0,*7F
1494075745.64,31975,17.13,73614.0,8.11,4.45,4.67,0,*7C
1494075746.82,31976,17.13,73608.8,8.15,4.85,5.07,0,*70
1494075748.04,31977,17.13,73618.3,8.11,4.41,4.59,0,*77
1494075749.28,31978,17.13,73616.0,8.17,4.79,5.23,0,*79
1494075750.48,31979,17.13,73618.3,8.19,5.49,5.81,0,*7C
1494075751.68,31980,17.13,73622.0,8.17,5.23,5.45,0,*70
1494075752.89,31981,17.13,73624.3,8.23,4.81,5.01,0,*7F
1494075754.1,31982,17.13,73630.3,8.25,6.21,6.33,0,*70
1494075755.33,31983,17.13,73632.5,8.29,5.67,5.89,0,*7E
1494075756.54,31984,17.13,73632.3,8.31,6.39,6.53,0,*7C
1494075757.72,31985,17.13,73632.0,8.35,6.07,6.33,0,*72
1494075758.92,31986,17.13,73634.5,8.41,5.29,5.41,0,*7B
1494075760.14,31987,17.13,73632.8,8.47,5.77,5.95,0,*7E
1494075761.37,31988,17.13,73632.0,8.51,5.95,6.17,0,*73
1494075762.6,31989,17.13,73634.3,8.55,5.95,6.17,0,*76
1494075763.8,31990,17.13,73632.8,8.57,4.59,4.81,0,*70
1494075765.01,31991,17.13,73628.8,8.59,3.93,4.27,0,*72
1494075766.21,31992,17.13,73626.0,8.59,3.55,3.89,0,*78
1494075767.47,31993,17.13,73634.8,8.59,3.45,3.71,0,*7F
1494075768.68,31994,17.13,73632.8,8.59,4.15,4.37,0,*7F
1494075769.91,31995,17.13,73634.0,8.59,4.05,4.15,0,*7F
1494075771.12,31996,17.13,73626.5,8.59,4.37,4.53,0,*7F
1494075772.35,31997,17.13,73628.8,8.59,3.71,3.59,0,*76
1494075773.61,31998,17.13,73626.5,8.59,3.71,3.67,0,*74
1494075774.87,31999,17.13,73630.3,8.63,4.67,4.67,0,*7B
1494075776.1,32000,17.19,73628.8,8.63,4.89,4.97,0,*7E
1494075777.37,32001,17.13,73628.8,8.67,4.59,4.79,0,*76
1494075778.58,32002,17.13,73626.5,8.65,5.05,5.33,0,*70
1494075779.8,32003,17.13,73628.8,8.69,5.27,5.51,0,*79
1494075781.01,32004,17.13,73630.8,8.69,4.71,4.81,0,*70
1494075782.22,32005,17.13,73628.8,8.69,3.55,3.75,0,*7C
1494075783.45,32006,17.13,73628.0,8.71,4.41,4.71,0,*77
1494075784.65,32007,17.13,73628.8,8.71,4.11,4.27,0,*70
1494075785.88,32008,17.13,73630.8,8.69,4.01,4.31,0,*70
1494075787.09,32009,17.19,73628.5,8.69,3.63,3.67,0,*76
1494075788.29,32010,17.13,73620.0,8.69,2.81,2.95,0,*7F
1494075789.49,32011,17.19,73618.0,8.67,3.63,3.85,0,*7D
1494075790.7,32012,17.13,73618.5,8.67,3.89,4.07,0,*77
1494075791.91,32013,17.13,73620.3,8.67,4.19,4.45,0,*7E
1494075793.12,32014,17.13,73620.5,8.69,3.75,3.85,0,*71
1494075794.32,32015,17.13,73626.8,8.67,3.29,3.29,0,*71
1494075795.56,32016,17.13,73630.3,8.63,3.25,3.45,0,*70
1494075796.82,32017,17.19,73630.3,8.63,2.81,2.89,0,*7F
1494075798.08,32018,17.13,73630.3,8.59,2.51,2.59,0,*79
1494075799.31,32019,17.13,73626.5,8.57,2.43,2.43,0,*7E
1494075800.53,32020,17.13,73630.3,8.53,3.29,3.41,0,*7E
1494075801.76,32021,17.13,73628.3,8.55,2.59,2.65,0,*78
1494075803.01,32022,17.19,73624.5,8.51,2.69,2.77,0,*7F
1494075804.22,32023,17.19,73624.0,8.49,2.27,2.17,0,*7B
1494075805.41,32024,17.19,73626.5,8.49,2.65,2.65,0,*7F
1494075806.67,32025,17.13,73628.0,8.47,3.03,3.07,0,*74
1494075807.87,32026,17.13,73618.3,8.45,2.61,2.69,0,*79
1494075809.1,32027,17.13,73620.0,8.45,2.21,2.13,0,*71
1494075810.31,32028,17.19,73616.8,8.45,1.75,1.51,0,*79
1494075811.53,32029,17.13,73612.8,8.39,2.05,2.25,0,*77
1494075812.75,32030,17.13,73610.5,8.35,1.47,1.47,0,*71
1494075813.95,32031,17.13,73612.3,8.33,0.97,1.01,0,*48
1494075815.19,32032,17.19,73618.8,8.29,0.79,0.71,0,*76
1494075816.42,32033,17.19,73622.0,8.27,1.17,1.17,0,*71
1494075817.64,32034,17.19,73618.3,8.25,-0.29,-0.23,0,*7E
1494075818.88,32035,17.13,73618.0,8.21,0.25,0.29,0,*7D
1494075820.04,32036,17.19,73616.0,8.15,0.05,-0.03,0,*5E
1494075821.25,32037,17.19,73620.8,8.11,0.17,0.01,0,*47
1494075822.48,32038,17.19,73622.5,8.07,0.33,0.21,0,*7B
1494075823.73,32039,17.19,73620.8,8.03,0.29,0.21,0,*75
1494075824.98,32040,17.19,73624.0,8.03,1.25,1.29,0,*7F
1494075826.21,32041,17.13,73620.3,8.01,2.47,2.59,0,*7F
1494075827.45,32042,17.19,73622.5,8.01,3.07,3.37,0,*70
1494075828.65,32043,17.13,73618.0,8.01,2.81,2.91,0,*73
1494075829.91,32044,17.19,73622.8,7.99,3.03,3.03,0,*7B
1494075831.09,32045,17.19,73624.0,8.01,2.31,2.35,0,*70
1494075832.31,32046,17.13,73620.3,7.99,2.89,2.99,0,*78
1494075833.53,32047,17.19,73620.0,7.99,2.21,2.31,0,*79
1494075834.75,32048,17.13,73620.0,7.99,2.77,2.91,0,*7F
1494075836.01,32049,17.19,73624.0,7.99,2.77,2.73,0,*72
1494075837.24,32050,17.19,73620.3,7.99,0.75,0.87,0,*73
1494075838.48,32051,17.19,73620.8,7.95,2.17,2.27,0,*70
1494075839.73,32052,17.19,73616.0,7.95,2.13,2.13,0,*70
1494075840.97,32053,17.19,73618.8,7.95,2.35,2.51,0,*73
1494075842.2,32054,17.19,73616.8,7.93,2.51,2.69,0,*7B
1494075843.44,32055,17.19,73618.5,7.93,2.01,2.17,0,*76
1494075844.68,32056,17.19,73620.0,7.89,1.13,1.09,0,*72
1494075845.9,32057,17.19,73620.0,7.85,0.71,0.83,0,*79
1494075847.14,32058,17.19,73620.3,7.83,0.67,0.71,0,*7A
1494075848.36,32059,17.19,73620.5,7.81,0.83,0.83,0,*7E
1494075849.59,32060,17.19,73622.0,7.79,1.17,1.25,0,*72
1494075850.82,32061,17.13,73622.8,7.77,1.79,1.85,0,*7F
1494075852.01,32062,17.19,73622.8,7.75,2.21,2.31,0,*7C
1494075853.21,32063,17.19,73620.8,7.75,2.65,2.73,0,*7B
1494075854.44,32064,17.19,73626.0,7.73,2.25,2.27,0,*7F
1494075855.69,32065,17.19,73620.8,7.73,2.13,2.17,0,*78
1494075856.91,32066,17.13,73616.0,7.73,0.97,0.91,0,*79
1494075858.12,32067,17.19,73620.3,7.67,1.13,1.05,0,*7C
1494075859.32,32068,17.19,73622.0,7.63,1.67,1.83,0,*7A
1494075860.51,32069,17.19,73626.0,7.63,2.21,2.31,0,*70
1494075861.7,32070,17.19,73626.3,7.63,2.21,2.27,0,*7F
1494075862.91,32071,17.13,73624.8,7.63,2.17,2.27,0,*7B
1494075864.16,32072,17.19,73626.5,7.61,2.77,2.85,0,*74
1494075865.38,32073,17.19,73628.0,7.61,1.51,1.41,0,*79
1494075866.6,32074,17.19,73626.8,7.59,1.63,1.71,0,*77
1494075867.8,32075,17.19,73624.0,7.59,1.79,1.93,0,*71
1494075869.06,32076,17.19,73620.8,7.57,1.29,1.37,0,*77
1494075870.29,32077,17.19,73622.3,7.55,1.43,1.55,0,*7C
1494075871.52,32078,17.19,73620.0,7.53,2.21,2.35,0,*77
1494075872.76,32079,17.19,73622.0,7.53,2.31,2.43,0,*76
1494075873.93,32080,17.19,73626.5,7.51,2.27,2.31,0,*70
1494075875.12,32081,17.19,73626.5,7.51,1.83,1.89,0,*7C
1494075876.36,32082,17.19,73628.8,7.51,2.01,2.17,0,*72
1494075877.58,32083,17.19,73630.0,7.51,1.93,1.93,0,*74
1494075878.83,32084,17.19,73626.3,7.47,1.85,1.89,0,*78
1494075880.08,32085,17.13,73622.8,7.47,2.25,2.47,0,*71
1494075881.34,32086,17.19,73624.3,7.47,1.85,1.85,0,*76
1494075882.57,32087,17.13,73622.0,7.43,1.85,1.83,0,*75
1494075883.73,32088,17.19,73626.3,7.41,1.01,0.97,0,*40
1494075884.97,32089,17.19,73626.5,7.39,0.13,0.25,0,*75
1494075886.2,32090,17.19,73626.5,7.37,-0.23,-0.23,0,*76
1494075887.42,32091,17.19,73624.8,7.33,0.47,0.51,0,*74
1494075888.65,32092,17.19,73620.3,7.31,0.95,0.95,0,*72
1494075889.88,32093,17.19,73620.3,7.29,1.43,1.55,0,*7D
1494075891.1,32094,17.19,73624.3,7.27,0.95,1.01,0,*4F
1494075892.32,32095,17.19,73622.3,7.25,0.79,0.95,0,*72
1494075893.49,32096,17.19,73624.0,7.25,1.01,1.05,0,*77
1494075894.73,32097,17.19,73626.0,7.19,1.43,1.59,0,*76
1494075895.96,32098,17.19,73624.0,7.21,1.51,1.71,0,*7B
1494075897.15,32099,17.19,73628.5,7.19,0.97,0.97,0,*73
1494075898.37,32100,17.19,73624.5,7.17,0.71,0.71,0,*7C
1494075899.61,32101,17.19,73630.3,7.15,0.95,0.95,0,*7F
1494075900.87,32102,17.19,73626.8,7.15,1.29,1.33,0,*77
1494075902.1,32103,17.19,73624.5,7.13,1.55,1.67,0,*7A
1494075903.33,32104,17.19,73628.8,7.13,2.13,2.13,0,*7C
1494075904.57,32105,17.19,73628.8,7.11,0.79,0.79,0,*7F
1494075905.78,32106,17.19,73628.3,7.13,1.79,1.85,0,*7D
1494075907.03,32107,17.19,73628.5,7.11,2.43,2.55,0,*7A
1494075908.28,32108,17.19,73630.5,7.11,2.59,2.73,0,*7A
1494075909.49,32109,17.19,73630.3,7.13,2.51,2.61,0,*72
1494075910.72,32110,17.19,73630.8,7.11,2.81,2.91,0,*7A
1494075911.92,32111,17.19,73630.3,7.13,3.19,3.29,0,*7B
1494075913.12,32112,17.19,73628.3,7.13,3.29,3.45,0,*71
1494075914.33,32113,17.19,73630.0,7.13,3.41,3.55,0,*7F
1494075915.56,32114,17.19,73632.8,7.17,3.15,3.23,0,*7C
1494075916.75,32115,17.19,73630.8,7.17,3.49,3.59,0,*79
1494075918.0,32116,17.19,73630.0,7.19,3.37,3.67,0,*70
1494075919.22,32117,17.19,73630.5,7.19,3.49,3.63,0,*7C
1494075920.48,32118,17.19,73634.0,7.19,3.75,3.97,0,*77
1494075921.71,32119,17.19,73632.8,7.21,3.79,3.97,0,*71
1494075922.91,32120,17.19,73636.3,7.27,4.11,4.49,0,*70
1494075924.15,32121,17.19,73636.0,7.27,3.79,3.93,0,*78
1494075925.32,32122,17.19,73632.8,7.29,3.93,4.19,0,*74
1494075926.5,32123,17.19,73632.8,7.33,4.19,4.49,0,*7E
1494075927.68,32124,17.19,73628.5,7.33,3.29,3.59,0,*7B
1494075928.88,32125,17.19,73628.8,7.33,3.37,3.59,0,*75
1494075930.08,32126,17.19,73632.0,7.35,3.55,3.85,0,*75
1494075931.31,32127,17.19,73634.0,7.35,3.67,4.11,0,*7F
1494075932.48,32128,17.19,73634.5,7.41,4.23,4.81,0,*7D
1494075933.68,32129,17.19,73634.8,7.43,4.89,5.71,0,*70
1494075934.86,32130,17.19,73636.8,7.51,5.29,5.99,0,*76
1494075936.08,32131,17.19,73638.0,7.55,5.51,6.17,0,*79
1494075937.29,32132,17.19,73636.0,7.57,5.67,6.25,0,*7C
1494075938.51,32133,17.19,73634.0,7.61,5.29,5.81,0,*7F
1494075939.76,32134,17.19,73634.5,7.65,5.73,6.17,0,*7F
1494075940.97,32135,17.19,73634.0,7.75,6.51,6.97,0,*74
1494075942.16,32136,17.19,73634.8,7.79,6.53,7.09,0,*7F
1494075943.39,32137,17.19,73638.5,7.83,6.11,6.61,0,*72
1494075944.63,32138,17.19,73632.5,7.87,5.05,5.59,0,*77
1494075945.83,32139,17.19,73632.3,7.93,5.77,6.25,0,*7E
1494075947.08,32140,17.19,73632.5,7.95,6.43,6.73,0,*71
1494075948.31,32141,17.19,73630.8,8.03,6.57,6.93,0,*7B
1494075949.5,32142,17.19,73628.8,8.09,6.69,7.01,0,*75
1494075950.73,32143,17.19,73628.5,8.11,7.45,7.69,0,*7C
1494075951.96,32144,17.19,73628.8,8.19,6.87,7.19,0,*7B
1494075953.16,32145,17.19,73630.0,8.23,6.75,7.11,0,*76
1494075954.33,32146,17.19,73624.0,8.27,6.79,7.09,0,*74
1494075955.55,32147,17.19,73624.0,8.29,6.57,7.05,0,*7B
1494075956.75,32148,17.19,73622.3,8.35,6.57,7.05,0,*79
1494075957.95,32149,17.19,73626.5,8.39,6.47,6.93,0,*7B
1494075959.18,32150,17.19,73630.8,8.41,6.03,6.57,0,*74
1494075960.43,32151,17.19,73628.5,8.47,5.73,6.43,0,*72
1494075961.64,32152,17.19,73634.5,8.51,4.85,5.59,0,*76
1494075962.85,32153,17.19,73632.3,8.53,4.89,5.93,0,*7F
1494075964.08,32154,17.19,73624.8,8.55,4.37,5.27,0,*74
1494075965.34,32155,17.19,73624.0,8.59,4.05,4.97,0,*72
1494075966.55,32156,17.19,73622.8,8.65,3.37,4.33,0,*76
1494075967.76,32157,17.19,73632.8,8.65,1.47,2.99,0,*74
1494075968.99,32158,17.19,73624.3,8.65,1.25,2.73,0,*7B
1494075970.21,32159,17.19,73628.3,8.65,1.79,2.89,0,*76
1494075971.46,32160,17.19,73626.8,8.67,2.81,3.67,0,*7B
1494075972.67,32161,17.19,73630.0,8.65,2.77,3.93,0,*7A
1494075973.93,32162,17.19,73624.8,8.67,2.43,4.01,0,*70
1494075975.15,32163,17.19,73626.8,8.69,2.01,3.97,0,*71
1494075976.36,32164,17.19,73620.8,8.73,2.61,4.05,0,*77
1494075977.59,32165,17.19,73620.3,8.75,3.85,4.67,0,*7F
1494075978.79,32166,17.19,73620.5,8.75,4.33,4.81,0,*7E
1494075980.02,32167,17.19,73622.3,8.77,4.79,5.19,0,*73
1494075981.2,32168,17.19,73622.3,8.79,4.85,5.29,0,*72
1494075982.44,32169,17.19,73622.3,8.81,4.11,4.75,0,*71
1494075983.66,32170,17.19,73622.5,8.85,3.33,4.27,0,*7D
1494075984.89,32171,17.19,73622.0,8.87,2.59,3.75,0,*73
1494075986.07,32172,17.19,73626.8,8.91,0.43,1.97,0,*40
1494075987.33,32173,17.19,73630.8,8.89,1.13,2.77,0,*71
1494075988.52,32174,17.25,73632.5,8.91,0.33,1.79,0,*41
1494075989.77,32175,17.19,73630.0,8.93,0.21,2.09,0,*45
1494075990.97,32176,17.19,73624.8,8.93,1.75,2.91,0,*77
1494075992.16,32177,17.19,73624.3,8.95,3.37,4.27,0,*7F
1494075993.34,32178,17.19,73626.5,8.99,4.11,4.53,0,*7C
1494075994.54,32179,17.19,73630.0,9.01,4.45,4.33,0,*7A
1494075995.75,32180,17.19,73630.0,9.03,3.89,3.41,0,*7B
1494075996.95,32181,17.19,73632.5,9.09,4.45,3.97,0,*7C
1494075998.16,32182,17.19,73634.3,9.09,2.89,2.99,0,*76
1494075999.34,32183,17.19,73628.8,9.15,0.43,1.79,0,*43
1494076000.57,32184,17.19,73634.8,9.15,-0.65,1.51,0,*67
1494076001.8,32185,17.19,73630.8,9.17,-2.03,0.67,0,*62
1494076003.05,32186,17.25,73630.5,9.19,-1.09,1.09,0,*5F
1494076004.23,32187,17.19,73624.8,9.21,1.01,1.41,0,*7C
1494076005.43,32188,17.19,73622.5,9.23,3.29,2.95,0,*73
1494076006.63,32189,17.19,73622.5,9.25,2.99,3.23,0,*72
1494076007.83,32190,17.19,73614.3,9.31,4.23,4.57,0,*7C
1494076009.09,32191,17.19,73614.0,9.31,3.15,3.15,0,*7E
1494076010.32,32192,17.19,73614.5,9.31,2.69,2.65,0,*71
1494076011.56,32193,17.19,73614.0,9.31,1.93,1.97,0,*78
1494076012.79,32194,17.19,73614.5,9.33,2.85,3.07,0,*72
1494076014.01,32195,17.19,73620.3,9.35,-0.11,0.79,0,*5D
1494076015.22,32196,17.19,73620.0,9.33,-1.35,-1.25,0,*7A
1494076016.46,32197,17.19,73618.0,9.31,1.43,1.55,0,*7F
1494076017.69,32198,17.19,73612.0,9.33,1.09,1.47,0,*7F
1494076018.95,32199,17.19,73612.0,9.35,-2.59,-1.05,0,*78
1494076020.15,32200,17.19,73608.3,9.33,-8.89,-5.55,0,*7B
1494076021.42,32201,17.25,73610.8,9.27,-8.03,-5.85,0,*70
1494076022.64,32202,17.19,73608.0,9.23,-6.13,-4.37,0,*70
1494076023.85,32203,17.19,73614.5,9.19,-4.57,-3.27,0,*7C
1494076025.09,32204,17.19,73612.8,9.15,-3.43,-2.15,0,*75
1494076026.36,32205,17.19,73614.3,9.11,-5.73,-4.77,0,*77
1494076027.6,32206,17.19,73606.3,9.09,-7.05,-5.85,0,*72
1494076028.84,32207,17.19,73608.0,9.01,-7.99,-6.85,0,*7D
1494076030.07,32208,17.25,73614.3,8.97,-9.67,-8.03,0,*73
1494076031.28,32209,17.19,73608.5,8.93,-6.85,-6.69,0,*77
1494076032.52,32210,17.25,73612.0,8.89,-5.85,-6.47,0,*7B
1494076033.71,32211,17.25,73608.8,8.91,-4.49,-7.19,0,*78
1494076034.94,32212,17.25,73610.8,8.93,-3.07,-6.27,0,*78
1494076036.17,32213,17.19,73602.5,8.89,-0.33,-1.83,0,*4F
1494076037.42,32214,17.25,73606.3,8.89,1.59,1.21,0,*7D
1494076038.67,32215,17.19,73606.5,8.89,2.81,2.59,0,*76
1494076039.91,32216,17.25,73608.8,8.91,1.37,1.17,0,*7B
1494076041.13,32217,17.19,73608.0,8.91,1.63,1.67,0,*7C
1494076042.36,32218,17.25,73618.5,8.91,3.33,3.45,0,*76
1494076043.53,32219,17.25,73622.0,8.91,4.49,4.37,0,*7F
1494076044.79,32220,17.25,73622.8,8.97,4.79,4.67,0,*75
1494076046.02,32221,17.25,73624.0,8.99,5.05,4.93,0,*7B
1494076047.22,32222,17.25,73626.5,9.03,5.05,5.07,0,*76
1494076048.45,32223,17.19,73628.8,9.03,4.93,4.97,0,*71
1494076049.63,32224,17.25,73632.0,9.09,5.37,5.49,0,*71
1494076050.84,32225,17.25,73634.0,9.11,4.81,5.11,0,*78
1494076052.05,32226,17.25,73634.0,9.13,4.79,4.85,0,*72
1494076053.27,32227,17.25,73632.0,9.15,4.59,4.85,0,*77
1494076054.51,32228,17.25,73630.3,9.19,4.85,5.05,0,*7C
1494076055.7,32229,17.25,73632.8,9.21,3.55,3.97,0,*71
1494076056.91,32230,17.25,73634.3,9.25,3.93,4.75,0,*7C
1494076058.14,32231,17.25,73630.3,9.25,3.19,4.05,0,*78
1494076059.37,32232,17.25,73630.3,9.31,1.33,2.27,0,*72
1494076060.57,32233,17.25,73632.0,9.35,-1.59,-0.45,0,*4D
1494076061.79,32234,17.19,73626.5,9.33,-3.71,-1.71,0,*72
1494076062.98,32235,17.25,73628.3,9.33,-3.35,-2.19,0,*7E
1494076064.25,32236,17.25,73626.0,9.27,-3.43,-2.75,0,*73
1494076065.47,32237,17.25,73626.8,9.23,-4.65,-2.99,0,*77
1494076066.7,32238,17.25,73630.5,9.23,-6.69,-3.59,0,*7B
1494076067.91,32239,17.25,73620.3,9.23,-2.23,-0.49,0,*42
1494076069.14,32240,17.25,73622.5,9.25,0.95,0.91,0,*70
1494076070.38,32241,17.25,73620.0,9.23,2.55,1.97,0,*7E
1494076071.59,32242,17.25,73620.0,9.25,3.23,2.95,0,*7A
1494076072.76,32243,17.25,73620.3,9.25,4.27,4.11,0,*72
1494076073.97,32244,17.25,73620.0,9.27,4.53,4.53,0,*72
1494076075.2,32245,17.25,73620.0,9.31,4.85,5.01,0,*79
1494076076.37,32246,17.25,73622.0,9.33,5.07,5.37,0,*76
1494076077.57,32247,17.25,73620.5,9.35,5.29,5.59,0,*75
1494076078.79,32248,17.25,73624.0,9.35,5.49,5.85,0,*7D
1494076080.0,32249,17.25,73622.5,9.41,5.15,5.67,0,*7A
1494076081.22,32250,17.25,73622.3,9.41,5.37,5.93,0,*79
1494076082.43,32251,17.19,73622.8,9.43,5.19,5.73,0,*78
1494076083.6,32252,17.25,73626.3,9.47,5.67,6.21,0,*72
1494076084.82,32253,17.25,73622.8,9.49,5.41,6.13,0,*78
1494076086.02,32254,17.25,73620.3,9.55,6.11,6.87,0,*79
1494076087.2,32255,17.25,73626.3,9.59,5.41,5.99,0,*7E
1494076088.41,32256,17.25,73628.5,9.63,5.01,5.71,0,*76
1494076089.62,32257,17.25,73628.0,9.65,4.89,5.59,0,*7A
1494076090.85,32258,17.25,73628.3,9.69,4.97,5.19,0,*72
1494076092.06,32259,17.25,73630.0,9.71,4.97,5.23,0,*73
1494076093.3,32260,17.25,73630.0,9.73,4.07,4.63,0,*77
1494076094.5,32261,17.25,73622.8,9.79,3.53,4.33,0,*7F
1494076095.71,32262,17.25,73622.3,9.83,2.51,3.59,0,*71
1494076096.93,32263,17.25,73620.8,9.85,2.35,3.11,0,*78
1494076098.14,32264,17.25,73620.8,9.87,3.75,3.85,0,*75
1494076099.34,32265,17.25,73614.0,9.89,3.89,3.55,0,*74
1494076100.57,32266,17.25,73610.0,9.93,3.89,3.11,0,*7C
1494076101.76,32267,17.25,73608.0,9.95,3.25,2.61,0,*7B
1494076102.99,32268,17.25,73610.0,9.93,2.39,1.79,0,*74
1494076104.24,32269,17.25,73614.8,9.93,2.77,2.39,0,*78
1494076105.48,32270,17.25,73620.8,9.95,4.63,4.93,0,*73
1494076106.71,32271,17.25,73616.0,9.95,2.89,2.89,0,*7D
1494076107.91,32272,17.25,73626.0,9.95,1.67,1.79,0,*71
1494076109.16,32273,17.25,73624.8,9.93,1.17,1.43,0,*78
1494076110.39,32274,17.25,73622.8,9.93,1.79,1.93,0,*7A
1494076111.61,32275,17.25,73626.5,9.95,0.37,0.51,0,*79
1494076112.84,32276,17.25,73626.0,9.95,1.37,1.67,0,*7F
1494076114.06,32277,17.25,73626.3,9.99,0.41,0.83,0,*79
1494076115.29,32278,17.25,73626.8,10.01,-0.41,0.75,0,*6B
1494076116.53,32279,17.25,73616.8,10.03,-2.75,-1.43,0,*44
1494076117.75,32280,17.25,73618.3,10.03,-2.07,-0.41,0,*74
1494076118.99,32281,17.25,73616.3,10.01,1.09,1.83,0,*45
1494076120.2,32282,17.25,73616.3,10.03,3.23,3.81,0,*4E
1494076121.38,32283,17.25,73620.5,10.03,4.11,4.53,0,*41
1494076122.6,32284,17.25,73616.5,10.05,4.27,4.63,0,*46
1494076123.78,32285,17.25,73618.3,10.05,3.55,4.49,0,*4D
1494076125.03,32286,17.25,73616.3,10.05,2.17,2.89,0,*43
1494076126.3,32287,17.25,73612.0,10.07,1.33,2.05,0,*41
1494076127.48,32288,17.25,73612.5,10.03,3.59,4.11,0,*47
1494076128.7,32289,17.25,73618.0,10.05,3.79,4.41,0,*47
1494076129.92,32290,17.25,73612.5,10.05,0.21,0.71,0,*46